CST,Max TemperatureF,Mean TemperatureF,Min TemperatureF,Max Dew PointF,MeanDew PointF,Min DewpointF,Max Humidity, Mean Humidity, Min Humidity, Max Sea Level PressureIn, Mean Sea Level PressureIn, Min Sea Level PressureIn, Max VisibilityMiles, Mean VisibilityMiles, Min VisibilityMiles, Max Wind SpeedMPH, Mean Wind SpeedMPH, Max Gust SpeedMPH,PrecipitationIn, CloudCover, Events, WindDirDegrees
2012-2-1,51,38,26,30,25,19,80,61,38,30.13,30.08,30.02,10,10,10,7,2,,0.00,0,,249
2012-2-2,46,35,24,34,27,19,86,75,57,30.25,30.20,30.16,10,10,10,10,5,,0.00,0,,63
2012-2-3,37,35,32,32,30,30,93,83,75,30.37,30.30,30.24,10,8,3,17,10,21,0.12,4,,48
2012-2-4,37,32,28,28,26,23,93,82,60,30.43,30.38,30.33,10,8,3,18,12,22,0.05,5,,344
2012-2-5,30,27,24,27,24,21,100,92,86,30.41,30.36,30.28,10,5,0,14,9,16,0.00,7,,279
2012-2-6,46,30,15,32,22,14,100,80,43,30.24,30.15,30.08,10,8,0,9,2,,0.00,0,,235
2012-2-7,30,26,23,25,19,14,86,74,64,30.52,30.45,30.32,10,10,10,20,14,25,0.00,8,,341
2012-2-8,30,19,8,16,10,3,92,71,51,30.53,30.43,30.31,10,10,10,12,4,,0.00,0,,231
2012-2-9,42,30,17,25,20,12,93,72,45,30.27,30.08,29.95,10,10,9,15,6,18,0.00,0,,216
2012-2-10,24,15,5,14,-2,-8,64,54,41,30.58,30.36,30.17,10,10,10,30,22,38,0.00,1,,327
2012-2-11,21,10,-2,0,-5,-9,78,56,36,30.74,30.66,30.57,10,10,10,14,9,20,0.00,0,,283
2012-2-12,33,18,3,10,3,-2,85,58,25,30.52,30.30,30.05,10,10,10,22,8,29,0.00,1,,170
2012-2-13,28,24,19,25,20,12,93,83,59,29.94,29.78,29.70,10,5,0,13,7,18,0.00,6,,158
2012-2-14,48,27,6,34,19,3,100,80,53,29.73,29.70,29.67,10,7,0,13,2,,0.01,3,,195
2012-2-15,42,36,30,34,28,23,93,78,53,30.09,29.92,29.79,10,9,3,20,6,21,0.00,6,,334
2012-2-16,44,34,24,28,21,18,80,61,36,30.23,30.15,30.03,10,10,10,16,8,,0.00,0,,225
2012-2-17,37,30,23,27,20,12,86,65,41,30.23,30.10,29.97,10,10,10,22,10,28,0.00,0,,306
2012-2-18,41,28,15,21,16,10,93,62,39,30.25,30.18,30.09,10,10,10,14,5,18,0.00,0,,183
2012-2-19,46,34,21,28,22,18,86,65,46,30.07,29.98,29.89,10,10,10,23,11,30,0.00,0,,147
2012-2-20,37,35,33,36,29,25,93,77,60,29.90,29.72,29.58,10,7,2,21,15,26,0.20,8,,137
2012-2-21,42,36,30,30,25,21,93,68,42,29.79,29.73,29.66,10,10,10,21,13,26,0.07,0,,276
2012-2-22,50,40,30,34,29,25,86,66,47,29.56,29.48,29.38,10,10,10,20,7,23,0.00,2,,294
2012-2-23,35,32,30,30,29,27,93,87,75,29.79,29.49,29.31,10,5,0,29,11,37,0.14,7,,16
2012-2-24,32,26,19,25,19,12,93,77,64,30.19,30.02,29.85,10,8,1,26,16,33,0.00,3,,295
2012-2-25,26,16,6,19,11,0,92,73,59,30.26,30.05,29.68,10,10,10,22,11,29,0.00,0,,108
2012-2-26,39,29,17,30,19,10,86,68,56,30.29,29.89,29.56,10,10,10,33,17,40,0.00,2,,282
2012-2-27,28,19,10,19,11,5,85,73,63,30.50,30.41,30.30,10,10,10,23,14,26,0.00,0,,298
2012-2-28,35,34,32,34,28,25,100,83,70,30.19,29.91,29.53,10,6,0,18,13,32,0.58,8,Thunderstorm,104
2012-2-29,37,32,28,36,31,21,100,90,74,29.80,29.46,29.16,10,7,0,38,21,46,0.27,8,,283